Time,TemperatureF,DewpointF,PressureIn,WindDirection,WindDirectionDegrees,WindSpeedMPH,WindSpeedGustMPH,Humidity,HourlyPrecipIn,Conditions,Clouds,dailyrainin,SolarRadiationWatts/m^2,SoftwareType,DateUTC
2014-02-11 00:12:00,32.0,29.0,-100.00,North,-999,0.0,4.0,89,0.00,,,0.28,0.000000,,2014-02-11 08:12:00,
2014-02-11 00:21:00,32.0,29.0,-100.00,North,-999,0.0,4.0,89,0.00,,,0.28,0.000000,,2014-02-11 08:21:00,
2014-02-11 00:32:00,32.0,29.0,-100.00,North,-999,0.0,4.0,89,0.00,,,0.28,0.000000,,2014-02-11 08:32:00,
2014-02-11 00:42:00,32.0,29.0,-100.00,North,-999,0.0,4.0,89,0.00,,,0.28,0.000000,,2014-02-11 08:42:00,
2014-02-11 01:12:00,31.0,29.0,-100.00,North,-999,0.0,4.0,94,0.00,,,0.27,0.000000,,2014-02-11 09:12:00,
2014-02-11 01:21:00,31.0,29.0,-100.00,North,-999,0.0,4.0,94,0.00,,,0.27,0.000000,,2014-02-11 09:21:00,
2014-02-11 01:33:00,31.0,29.0,-100.00,North,-999,0.0,4.0,94,0.00,,,0.27,0.000000,,2014-02-11 09:33:00,
2014-02-11 01:43:00,31.0,29.0,-100.00,North,-999,0.0,4.0,94,0.00,,,0.27,0.000000,,2014-02-11 09:43:00,
2014-02-11 02:12:00,30.0,25.0,-100.00,North,-999,0.0,0.0,83,0.00,,,0.27,0.000000,,2014-02-11 10:12:00,
2014-02-11 02:23:00,30.0,25.0,-100.00,North,-999,0.0,0.0,83,0.00,,,0.27,0.000000,,2014-02-11 10:23:00,
2014-02-11 02:33:00,30.0,25.0,-100.00,North,-999,0.0,0.0,83,0.00,,,0.27,0.000000,,2014-02-11 10:33:00,
2014-02-11 02:43:00,30.0,25.0,-100.00,North,-999,0.0,0.0,83,0.00,,,0.27,0.000000,,2014-02-11 10:43:00,
2014-02-11 03:12:00,30.0,23.0,-100.00,North,-999,0.0,0.0,76,0.00,,,0.21,0.000000,,2014-02-11 11:12:00,
2014-02-11 03:22:00,30.0,23.0,-100.00,North,-999,0.0,0.0,76,0.00,,,0.21,0.000000,,2014-02-11 11:22:00,
2014-02-11 03:33:00,30.0,23.0,-100.00,North,-999,0.0,0.0,76,0.00,,,0.21,0.000000,,2014-02-11 11:33:00,
2014-02-11 03:42:00,30.0,23.0,-100.00,North,-999,0.0,0.0,76,0.00,,,0.21,0.000000,,2014-02-11 11:42:00,
2014-02-11 04:11:00,31.0,20.0,-100.00,SSE,147,1.0,7.0,64,0.00,,,0.06,0.000000,,2014-02-11 12:11:00,
2014-02-11 04:22:00,31.0,20.0,-100.00,SSE,147,1.0,7.0,64,0.00,,,0.06,0.000000,,2014-02-11 12:22:00,
2014-02-11 04:32:00,31.0,20.0,-100.00,SSE,147,1.0,7.0,64,0.00,,,0.06,0.000000,,2014-02-11 12:32:00,
2014-02-11 04:42:00,31.0,20.0,-100.00,SSE,147,1.0,7.0,64,0.00,,,0.06,0.000000,,2014-02-11 12:42:00,
2014-02-11 05:11:00,30.0,20.0,-100.00,SE,136,1.0,6.0,66,0.00,,,-99.99,0.000000,,2014-02-11 13:11:00,
2014-02-11 05:21:00,30.0,20.0,-100.00,SE,136,1.0,6.0,66,0.00,,,-99.99,0.000000,,2014-02-11 13:21:00,
2014-02-11 05:32:00,30.0,20.0,-100.00,SE,136,1.0,6.0,66,0.00,,,-99.99,0.000000,,2014-02-11 13:32:00,
2014-02-11 05:42:00,30.0,20.0,-100.00,SE,136,1.0,6.0,66,0.00,,,-99.99,0.000000,,2014-02-11 13:42:00,
2014-02-11 06:12:00,28.0,18.0,-100.00,North,-999,0.0,5.0,67,0.00,,,-99.99,0.000000,,2014-02-11 14:12:00,
2014-02-11 06:21:00,28.0,18.0,-100.00,North,-999,0.0,5.0,67,0.00,,,-99.99,0.000000,,2014-02-11 14:21:00,
2014-02-11 06:32:00,28.0,18.0,-100.00,North,-999,0.0,5.0,67,0.00,,,-99.99,0.000000,,2014-02-11 14:32:00,
2014-02-11 06:42:00,28.0,18.0,-100.00,North,-999,0.0,5.0,67,0.00,,,-99.99,0.000000,,2014-02-11 14:42:00,
2014-02-11 07:11:00,28.0,17.0,-100.00,SSE,158,1.0,5.0,64,0.00,,,0.00,0.000000,,2014-02-11 15:11:00,
2014-02-11 07:22:00,28.0,17.0,-100.00,SSE,158,1.0,5.0,64,0.00,,,0.00,0.000000,,2014-02-11 15:22:00,
2014-02-11 07:33:00,28.0,17.0,-100.00,SSE,158,1.0,5.0,64,0.00,,,0.00,0.000000,,2014-02-11 15:33:00,
2014-02-11 07:43:00,28.0,17.0,-100.00,SSE,158,1.0,5.0,64,0.00,,,0.00,0.000000,,2014-02-11 15:43:00,
2014-02-11 08:13:00,30.0,18.0,-100.00,North,-999,0.0,5.0,61,0.00,,,0.00,24.000000,,2014-02-11 16:13:00,
2014-02-11 08:23:00,30.0,18.0,-100.00,North,-999,0.0,5.0,61,0.00,,,0.00,24.000000,,2014-02-11 16:23:00,
2014-02-11 08:33:00,30.0,18.0,-100.00,North,-999,0.0,5.0,61,0.00,,,0.00,24.000000,,2014-02-11 16:33:00,
2014-02-11 08:43:00,30.0,18.0,-100.00,North,-999,0.0,5.0,61,0.00,,,0.00,24.000000,,2014-02-11 16:43:00,
2014-02-11 09:12:00,40.0,20.0,-100.00,North,-999,0.0,0.0,44,0.00,,,0.00,250.000000,,2014-02-11 17:12:00,
2014-02-11 09:22:00,40.0,20.0,-100.00,North,-999,0.0,0.0,44,0.00,,,0.00,250.000000,,2014-02-11 17:22:00,
2014-02-11 09:33:00,40.0,20.0,-100.00,North,-999,0.0,0.0,44,0.00,,,0.00,250.000000,,2014-02-11 17:33:00,
2014-02-11 09:42:00,40.0,20.0,-100.00,North,-999,0.0,0.0,44,0.00,,,0.00,250.000000,,2014-02-11 17:42:00,
2014-02-11 10:22:00,48.0,20.0,-100.00,North,-999,0.0,0.0,32,0.00,,,0.00,478.000000,,2014-02-11 18:22:00,
2014-02-11 10:32:00,48.0,20.0,-100.00,North,-999,0.0,0.0,32,0.00,,,0.00,478.000000,,2014-02-11 18:32:00,
2014-02-11 10:43:00,48.0,20.0,-100.00,North,-999,0.0,0.0,32,0.00,,,0.00,478.000000,,2014-02-11 18:43:00,
2014-02-11 11:42:00,55.0,18.0,-100.00,North,-999,0.0,3.0,23,0.00,,,0.00,647.000000,,2014-02-11 19:42:00,
2014-02-11 12:42:00,58.0,18.0,-100.00,North,-999,0.0,4.0,21,0.00,,,0.00,658.000000,,2014-02-11 20:42:00,
2014-02-11 15:22:00,56.0,4.0,-100.00,SW,235,4.0,11.0,12,0.00,,,0.00,373.000000,,2014-02-11 23:22:00,
2014-02-11 15:33:00,56.0,4.0,-100.00,SW,235,4.0,11.0,12,0.00,,,0.00,373.000000,,2014-02-11 23:33:00,
2014-02-11 16:12:00,57.0,11.0,-100.00,SW,226,6.0,15.0,16,0.00,,,0.00,526.000000,,2014-02-12 00:12:00,
2014-02-11 16:21:00,57.0,11.0,-100.00,SW,226,6.0,15.0,16,0.00,,,0.00,526.000000,,2014-02-12 00:21:00,
2014-02-11 16:32:00,57.0,11.0,-100.00,SW,226,6.0,15.0,16,0.00,,,0.00,526.000000,,2014-02-12 00:32:00,
2014-02-11 16:42:00,57.0,11.0,-100.00,SW,226,6.0,15.0,16,0.00,,,0.00,526.000000,,2014-02-12 00:42:00,
2014-02-11 17:11:00,52.0,15.0,-100.00,WSW,248,4.0,12.0,23,0.00,,,0.00,288.000000,,2014-02-12 01:11:00,
2014-02-11 17:21:00,52.0,15.0,-100.00,WSW,248,4.0,12.0,23,0.00,,,0.00,288.000000,,2014-02-12 01:21:00,
2014-02-11 17:32:00,52.0,15.0,-100.00,WSW,248,4.0,12.0,23,0.00,,,0.00,288.000000,,2014-02-12 01:32:00,
2014-02-11 17:42:00,52.0,15.0,-100.00,WSW,248,4.0,12.0,23,0.00,,,0.00,288.000000,,2014-02-12 01:42:00,
2014-02-11 18:11:00,45.0,17.0,-100.00,WSW,243,1.0,10.0,32,0.00,,,0.00,32.000000,,2014-02-12 02:11:00,
2014-02-11 18:22:00,45.0,17.0,-100.00,WSW,243,1.0,10.0,32,0.00,,,0.00,32.000000,,2014-02-12 02:22:00,
2014-02-11 18:32:00,45.0,17.0,-100.00,WSW,243,1.0,10.0,32,0.00,,,0.00,32.000000,,2014-02-12 02:32:00,
2014-02-11 18:42:00,45.0,17.0,-100.00,WSW,243,1.0,10.0,32,0.00,,,0.00,32.000000,,2014-02-12 02:42:00,
2014-02-11 19:12:00,46.0,21.0,-100.00,SW,234,3.0,8.0,37,0.00,,,0.00,0.000000,,2014-02-12 03:12:00,
2014-02-11 19:22:00,46.0,21.0,-100.00,SW,234,3.0,8.0,37,0.00,,,0.00,0.000000,,2014-02-12 03:22:00,
2014-02-11 19:33:00,46.0,21.0,-100.00,SW,234,3.0,8.0,37,0.00,,,0.00,0.000000,,2014-02-12 03:33:00,
2014-02-11 19:43:00,46.0,21.0,-100.00,SW,234,3.0,8.0,37,0.00,,,0.00,0.000000,,2014-02-12 03:43:00,
2014-02-11 20:12:00,45.0,22.0,-100.00,SW,230,1.0,9.0,40,0.00,,,0.00,0.000000,,2014-02-12 04:12:00,
2014-02-11 20:23:00,45.0,22.0,-100.00,SW,230,1.0,9.0,40,0.00,,,0.00,0.000000,,2014-02-12 04:23:00,
2014-02-11 20:33:00,45.0,22.0,-100.00,SW,230,1.0,9.0,40,0.00,,,0.00,0.000000,,2014-02-12 04:33:00,
2014-02-11 20:43:00,45.0,22.0,-100.00,SW,230,1.0,9.0,40,0.00,,,0.00,0.000000,,2014-02-12 04:43:00,
2014-02-11 21:22:00,44.0,15.0,-100.00,SSW,210,2.0,9.0,31,0.00,,,0.00,0.000000,,2014-02-12 05:22:00,
2014-02-11 21:33:00,44.0,15.0,-100.00,SSW,210,2.0,9.0,31,0.00,,,0.00,0.000000,,2014-02-12 05:33:00,
2014-02-11 21:43:00,44.0,15.0,-100.00,SSW,210,2.0,9.0,31,0.00,,,0.00,0.000000,,2014-02-12 05:43:00,
2014-02-11 22:12:00,42.0,15.0,-100.00,SW,230,4.0,9.0,33,0.00,,,0.00,0.000000,,2014-02-12 06:12:00,
2014-02-11 22:22:00,42.0,15.0,-100.00,SW,230,4.0,9.0,33,0.00,,,0.00,0.000000,,2014-02-12 06:22:00,
2014-02-11 22:32:00,42.0,15.0,-100.00,SW,230,4.0,9.0,33,0.00,,,0.00,0.000000,,2014-02-12 06:32:00,
2014-02-11 22:42:00,42.0,15.0,-100.00,SW,230,4.0,9.0,33,0.00,,,0.00,0.000000,,2014-02-12 06:42:00,
2014-02-11 23:12:00,40.0,15.0,-100.00,North,-999,0.0,6.0,36,0.00,,,0.00,0.000000,,2014-02-12 07:12:00,
2014-02-11 23:21:00,40.0,15.0,-100.00,North,-999,0.0,6.0,36,0.00,,,0.00,0.000000,,2014-02-12 07:21:00,
2014-02-11 23:32:00,40.0,15.0,-100.00,North,-999,0.0,6.0,36,0.00,,,0.00,0.000000,,2014-02-12 07:32:00,